Regional Weather Roundup
Issued by NWS

Home | Current Version | Previous Version | Graphics & Text | Print | Product List | Glossary On
Versions: 1 2 3 4 5 6 7 8 9 10 11 12 13 14 15 16 17 18 19 20 21 22 23 24 25 26 27 28 29 30 31 32 33 34 35 36 37 38 39 40 41 42 43 44 45 46 47 48 49 50
000
ASUS43 KBIS 212110
RWRND

NORTH DAKOTA REGIONAL WEATHER ROUNDUP
NATIONAL WEATHER SERVICE BISMARCK ND
400 PM CDT TUE OCT 21 2014

NOTE: "FAIR" INDICATES FEW OR NO CLOUDS BELOW 12,000 FEET WITH NO
SIGNIFICANT WEATHER AND/OR OBSTRUCTIONS TO VISIBILITY.


NDZ001>003-009>011-017-212200-
NORTHWEST NORTH DAKOTA

CITY           SKY/WX    TMP DP  RH WIND       PRES   REMARKS
WILLISTON      SUNNY     75  42  30 SE10      29.59F
MINOT          SUNNY     72  42  34 SE16      29.65F
MINOT AFB      SUNNY     71  44  37 SE16      29.64F
$$

NDZ018>021-031>035-040>046-212200-
SOUTHWEST NORTH DAKOTA

CITY           SKY/WX    TMP DP  RH WIND       PRES   REMARKS
BISMARCK       MOSUNNY   81  46  29 S14G26    29.68S
DICKINSON      SUNNY     78  45  30 S20       29.62F
GARRISON         N/A     73  45  36 S8        29.65F
HETTINGER ARPT SUNNY     81  43  26 S18       29.66F
$$

NDZ004>008-012>016-024-026-027-054-212200-
NORTHEAST NORTH DAKOTA

CITY           SKY/WX    TMP DP  RH WIND       PRES   REMARKS
GRAND FORKS    SUNNY     65  42  43 SE26G38   29.86F
GRND FRKS AFB  SUNNY     67  42  40 SE28G36   29.85F
DEVILS LAKE    SUNNY     66  43  42 SE24G31   29.75F
$$

NDZ022-023-025-028>030-036>039-047>053-212200-
SOUTHEAST NORTH DAKOTA

CITY           SKY/WX    TMP DP  RH WIND       PRES   REMARKS
FARGO          SUNNY     67  41  38 SE22G38   29.89F
JAMESTOWN      SUNNY     75  43  31 S20G30    29.78F
$$




USA.gov is the U.S. government's official web portal to all federal, state and local government web resources and services.